EW6230 Weather Reports


time (UTC)temp
C
wind
direction
speed
KPH
gust
KPH
rain 1hr
cm
rain 24hr
cm
rain mn
cm
humidity
%
barometer
mb
20260508190008 10 91 0.0 1.6 0.00 0.00 0.00 41 1016.9
20260508184505 10 91 0.0 1.6 0.00 0.00 0.00 43 1016.7
20260508183100 10 96 0.0 0.0 0.00 0.00 0.00 36 1016.7
20260508181602 10 96 0.0 0.0 0.00 0.00 0.00 36 1016.6
20260508180051 10 96 0.0 3.2 0.00 0.00 0.00 34 1016.6
20260508174546 10 97 0.0 1.6 0.00 0.00 0.00 30 1016.3
20260508173041 10 233 0.0 0.0 0.00 0.00 0.00 21 1016.2
20260508171543 10 226 0.0 3.2 0.00 0.00 0.00 21 1016.0
20260508170034 10 141 0.0 1.6 0.00 0.00 0.00 16 1016.0
20260508164529 10 63 0.0 1.6 0.00 0.00 0.00 14 1015.7
20260508163024 10 63 0.0 0.0 0.00 0.00 0.00 6 1015.5
20260508161519 10 16 0.0 1.6 0.00 0.00 0.00 1 1015.2
20260508160032 10 142 0.0 1.6 0.00 0.00 0.00 1 1015.1
20260508154511 10 129 0.0 0.0 0.00 0.00 0.00 1 1015.0
20260508153006 10 130 0.0 0.0 0.00 0.00 0.00 1 1015.0
20260508151502 10 130 0.0 0.0 0.00 0.00 0.00 1 1015.0
20260508150056 9 130 0.0 1.6 0.00 0.00 0.00 1 1014.7
20260508144552 9 141 0.0 1.6 0.00 0.00 0.00 1 1014.7
20260508143059 -17 0.0 0.0 0.00 0.00 0.00 1014.5
20260508141552 -17 0.0 0.0 0.00 0.00 0.00 1014.4
20260508140042 -17 0.0 0.0 0.00 0.00 0.00 1014.3
20260508134535 -17 0.0 0.0 0.00 0.00 0.00 1014.2
20260508133030 -17 0.0 0.0 0.00 0.00 0.00 1014.0
20260508131527 -17 0.0 0.0 0.00 0.00 0.00 1013.7
20260508130025 8 165 0.0 0.0 0.00 0.00 0.00 1 1013.6
20260508124521 7 164 0.0 0.0 0.00 0.00 0.00 1 1013.7
20260508123017 7 191 0.0 0.0 0.00 0.00 0.00 1 1013.7
20260508121535 7 190 0.0 0.0 0.00 0.00 0.00 1 1013.6
20260508120008 7 191 0.0 0.0 0.00 0.00 0.00 1 1013.6
20260508114504 7 190 0.0 0.0 0.00 0.00 0.00 1 1013.5
20260508113107 7 191 0.0 0.0 0.00 0.00 0.00 1 1013.5
20260508111554 7 191 0.0 0.0 0.00 0.00 0.00 1 1013.5
20260508110054 7 191 0.0 0.0 0.00 0.00 0.00 1 1013.3
20260508104545 7 191 0.0 0.0 0.00 0.00 0.00 1 1013.1
20260508103040 7 191 0.0 0.0 0.00 0.00 0.00 1 1013.0
20260508101538 7 191 0.0 0.0 0.00 0.00 0.00 1 1013.1
20260508100033 8 191 0.0 0.0 0.00 0.00 0.00 1 1013.0
20260508094529 8 191 0.0 0.0 0.00 0.00 0.00 1 1013.0
20260508093024 8 191 0.0 0.0 0.00 0.00 0.00 1 1012.9
20260508091520 8 191 0.0 0.0 0.00 0.00 0.00 1 1012.7
20260508090017 8 169 0.0 0.0 0.00 0.00 0.00 1 1012.6
20260508084511 8 169 0.0 0.0 0.00 0.00 0.00 1 1012.8
20260508083020 8 169 0.0 0.0 0.00 0.00 0.00 1 1012.7
20260508081606 8 169 0.0 0.0 0.00 0.00 0.00 1 1012.6
20260508080101 8 169 0.0 0.0 0.00 0.00 0.00 1 1012.6
20260508074554 8 169 0.0 0.0 0.00 0.00 0.00 1 1012.6
20260508073056 8 169 0.0 0.0 0.00 0.00 0.00 1 1012.8
20260508071549 8 169 0.0 0.0 0.00 0.00 0.00 1 1012.7
20260508070044 8 169 0.0 0.0 0.00 0.00 0.00 1 1012.9
20260508064555 8 169 0.0 0.0 0.00 0.00 0.00 1 1013.1
20260508063036 8 169 0.0 0.0 0.00 0.00 0.00 1 1013.2
20260508061531 8 168 0.0 0.0 0.00 0.00 0.00 1 1013.1
20260508060024 8 169 0.0 0.0 0.00 0.00 0.00 1 1013.2
20260508054520 8 169 0.0 0.0 0.00 0.00 0.00 1 1013.4
20260508053014 8 169 0.0 0.0 0.00 0.00 0.00 1 1013.4
20260508051509 8 169 0.0 0.0 0.00 0.00 0.00 1 1013.3
20260508050005 8 169 0.0 0.0 0.00 0.00 0.00 1 1013.4
20260508044504 9 169 0.0 0.0 0.00 0.00 0.00 1 1013.4
20260508043101 9 169 0.0 0.0 0.00 0.00 0.00 1 1013.4
20260508041603 10 169 0.0 0.0 0.00 0.00 0.00 1 1013.4
20260508040053 10 158 0.0 0.0 0.00 0.00 0.00 1 1013.4
20260508034551 10 158 0.0 0.0 0.00 0.00 0.00 8 1013.4
20260508033042 10 158 0.0 0.0 0.00 0.00 0.00 11 1013.6
20260508031537 11 157 0.0 0.0 0.00 0.00 0.00 20 1013.6
20260508030035 11 157 0.0 0.0 0.00 0.00 0.00 26 1013.6
20260508024530 11 157 0.0 0.0 0.00 0.00 0.00 29 1013.7
20260508023033 11 157 0.0 0.0 0.00 0.00 0.00 34 1013.8
20260508021519 11 156 0.0 0.0 0.00 0.00 0.00 36 1013.9
20260508020016 12 156 0.0 0.0 0.00 0.00 0.00 38 1014.2
20260508014511 12 157 0.0 0.0 0.00 0.00 0.00 44 1014.3
20260508013007 12 156 0.0 0.0 0.00 0.00 0.00 49 1014.2
20260508011501 12 157 0.0 0.0 0.00 0.00 0.00 51 1014.5
20260508010107 13 156 0.0 0.0 0.00 0.00 0.00 55 1014.5
20260508004602 13 210 0.0 0.0 0.00 0.00 0.00 54 1014.4
20260508003101 13 210 0.0 0.0 0.00 0.00 0.00 57 1014.6
20260508001546 14 210 0.0 1.6 0.00 0.00 0.00 60 1014.6
20260508000040 15 122 0.0 0.0 0.00 0.00 0.00 62 1014.6
20260507234536 16 122 0.0 1.6 0.00 0.00 0.00 61 1014.6
20260507233032 16 122 0.0 1.6 0.00 0.00 0.00 61 1014.6
20260507231527 16 32 0.0 3.2 0.00 0.00 0.00 61 1014.7
20260507230023 16 249 0.0 0.0 0.00 0.00 0.00 61 1014.9
20260507224519 16 248 0.0 0.0 0.00 0.00 0.00 61 1015.0
20260507223014 16 244 0.0 0.0 0.00 0.00 0.00 61 1015.1
20260507221509 17 227 0.0 1.6 0.00 0.00 0.00 60 1015.2
20260507220005 17 111 0.0 1.6 0.00 0.00 0.00 59 1015.3
20260507214500 17 116 0.0 1.6 0.00 0.00 0.00 61 1015.4
20260507213108 17 337 0.0 1.6 0.00 0.00 0.00 60 1015.5
20260507211553 16 49 0.0 1.6 0.00 0.00 0.00 61 1015.7
20260507210053 17 36 0.0 1.6 0.00 0.00 0.00 61 1015.9
20260507204556 17 333 0.0 1.6 0.00 0.00 0.00 61 1016.1
20260507203040 16 46 0.0 1.6 0.00 0.00 0.00 62 1016.3
20260507201539 16 358 0.0 1.6 0.00 0.00 0.00 61 1016.5
20260507200036 16 301 0.0 1.6 0.00 0.00 0.00 61 1016.5
20260507194526 16 212 0.0 4.8 0.00 0.00 0.00 61 1016.5
20260507193027 16 193 0.0 4.8 0.00 0.00 0.00 62 1016.6
20260507191517 15 352 0.0 1.6 0.00 0.00 0.00 62 1016.7